Simultaneous Nadir Overpasses (SNOs) Predictions

Prediction of SNOs between AURA and NPP Satellite Orbit:

Table of predicted SNOs for the next 14.0 days since TLE Epoch: 6/1/2013
Index Date (AURA) Time (AURA) Lat,Lon (AURA) SZA (AURA ) Date (NPP) Time (NPP) Lat,Lon (NPP) SZA (NPP ) Distance(km) Time Diff (sec)
1 06/01/2013 12:15:06 79.52,-106.89 70.54 06/01/2013 12:15:02 79.53,-106.76 70.52 2.89 4
2 06/01/2013 13:04:29 -79.67, 61.84 109.70 06/01/2013 13:05:43 -79.67, 61.75 109.73 1.81 74
3 06/04/2013 03:42:15 -79.31,-160.04 109.46 06/04/2013 03:41:19 -79.31,-160.01 109.43 0.77 56
4 06/04/2013 04:31:35 79.54, 9.12 70.21 06/04/2013 04:31:57 79.53, 9.04 70.21 1.88 22
5 06/06/2013 19:58:43 -79.36, -43.87 109.79 06/06/2013 19:58:13 -79.35, -43.95 109.75 1.94 30
6 06/06/2013 20:48:01 79.65, 125.82 69.77 06/06/2013 20:48:48 79.66, 125.92 69.72 1.88 47
7 06/09/2013 12:15:10 -79.43, 72.46 110.10 06/09/2013 12:15:06 -79.42, 72.35 110.07 2.61 4
8 06/09/2013 13:04:29 79.68,-118.11 69.52 06/09/2013 13:05:42 79.68,-118.06 69.46 1.20 73
9 06/12/2013 03:42:12 79.35, 20.18 69.86 06/12/2013 03:41:16 79.35, 20.33 69.87 3.12 56
10 06/12/2013 04:31:35 -79.52,-171.04 110.40 06/12/2013 04:31:57 -79.51,-171.10 110.40 1.23 22
11 06/14/2013 19:58:40 79.34, 136.04 69.75 06/14/2013 19:58:11 79.34, 136.03 69.77 0.21 29




NCC Satellite Simultaneous Nadir
